Niagara Falls, NY

3:42 AM EDT on June 24, 2017 (GMT -0400)
Niagara Falls International

Weather History for KIAG - July, 2013

Change the Weather History Date:

Friday, July 19, 2013

  Actual Average Record
Temperature  
Mean Temperature 79 °F -  
Max Temperature 90 °F 78 °F 90 °F (1989)
Min Temperature 69 °F 59 °F 51 °F (2000)
Cooling Degree Days 14    
Growing Degree Days 29 (Base 50)    
Moisture  
Dew Point 69 °F    
Average Humidity 77    
Maximum Humidity 90    
Minimum Humidity 54    
Precipitation  
Precipitation 3.46 in - - ()
Sea Level Pressure  
Sea Level Pressure 29.80 in    
Wind  
Wind Speed 16 mph (WSW)    
Max Wind Speed 36 mph    
Max Gust Speed 66 mph    
Visibility 7 miles    
Events Rain , Thunderstorm    
Averages and records for this station are not official NWS values.
T = Trace of Precipitation, MM = Missing Value Source: NWS Daily Summary

Daily Weather History Graph

Daily Weather History Graph

Search for Another Location

Airport or City:

Trip Planner

Search our weather history database for the weather conditions in past years. The results will help you decide how hot, cold, wet, or windy it might be!

Date:

Astronomy

Jul. 19, 2013 Rise Set
Actual Time 5:53 AM EDT 8:50 PM EDT
Civil Twilight 5:19 AM EDT 9:23 PM EDT
Nautical Twilight 4:36 AM EDT 10:06 PM EDT
Astronomical Twilight 3:46 AM EDT 10:56 PM EDT
Moon 5:50 PM EDT (7/19) 2:33 AM EDT (7/19)
Length of Visible Light 16h 03m
Length of Day
14h 56m
Waxing Gibbous, 86% of the Moon is Illuminated
Jul 19
Waxing Gibbous
Jul 22
Full
Jul 29
Last Quarter
Aug 6
New
Aug 14
First Quarter

Hourly Weather History & Observations

Time (EDT) Temp. Heat Index Dew Point Humidity Pressure Visibility Wind Dir Wind Speed Gust Speed Precip Events Conditions
12:53 AM 78.1 °F - 72.0 °F 81% 29.92 in 10.0 mi SW 9.2 mph - N/A   Clear
1:53 AM 78.1 °F - 71.1 °F 79% 29.90 in 10.0 mi SW 10.4 mph - N/A   Clear
2:53 AM 78.1 °F - 70.0 °F 76% 29.88 in 10.0 mi SW 9.2 mph - N/A   Clear
3:53 AM 80.1 °F 83.2 °F 70.0 °F 71% 29.86 in 10.0 mi SW 15.0 mph 23.0 mph N/A   Clear
4:53 AM 79.0 °F - 71.1 °F 77% 29.85 in 10.0 mi SW 11.5 mph - N/A   Clear
5:53 AM 79.0 °F - 72.0 °F 79% 29.85 in 10.0 mi SW 13.8 mph - N/A   Clear
6:53 AM 80.1 °F 84.2 °F 73.0 °F 79% 29.85 in 9.0 mi SW 17.3 mph 21.9 mph N/A   Clear
7:00 AM 80.6 °F 85.4 °F 73.4 °F 79% 29.87 in 7.0 mi SW 13.8 mph 23.0 mph N/A   Mostly Cloudy
7:53 AM 81.0 °F 85.8 °F 73.0 °F 77% 29.85 in 7.0 mi SW 15.0 mph 23.0 mph N/A   Mostly Cloudy
8:53 AM 82.9 °F 89.4 °F 73.9 °F 74% 29.85 in 10.0 mi SW 18.4 mph 24.2 mph N/A   Mostly Cloudy
9:53 AM 84.0 °F 91.2 °F 73.9 °F 72% 29.84 in 10.0 mi SW 19.6 mph - N/A   Scattered Clouds
10:53 AM 86.0 °F 93.8 °F 73.9 °F 67% 29.83 in 10.0 mi SW 19.6 mph 27.6 mph N/A   Scattered Clouds
11:53 AM 87.1 °F 95.4 °F 73.9 °F 65% 29.82 in 10.0 mi SW 20.7 mph 26.5 mph N/A   Scattered Clouds
12:53 PM 88.0 °F 95.6 °F 73.0 °F 61% 29.79 in 10.0 mi SW 23.0 mph 32.2 mph N/A   Partly Cloudy
1:53 PM 89.1 °F 96.0 °F 72.0 °F 57% 29.77 in 10.0 mi WSW 27.6 mph 35.7 mph N/A   Partly Cloudy
2:53 PM 89.1 °F 96.0 °F 72.0 °F 57% 29.75 in 10.0 mi SW 23.0 mph 32.2 mph N/A   Partly Cloudy
3:53 PM 89.1 °F 96.0 °F 72.0 °F 57% 29.73 in 10.0 mi SW 24.2 mph 34.5 mph N/A   Scattered Clouds
4:53 PM 88.0 °F 94.7 °F 72.0 °F 59% 29.72 in 10.0 mi WSW 20.7 mph 34.5 mph N/A   Scattered Clouds
5:53 PM 87.1 °F 92.8 °F 71.1 °F 59% 29.70 in 10.0 mi WSW 24.2 mph 38.0 mph N/A   Scattered Clouds
6:53 PM 86.0 °F 90.7 °F 70.0 °F 59% 29.73 in 10.0 mi WSW 19.6 mph 32.2 mph N/A   Scattered Clouds
6:56 PM 86.0 °F 90.4 °F 69.8 °F 58% 29.76 in 10.0 mi West 23.0 mph 34.5 mph N/A Thunderstorm Scattered Clouds
7:05 PM 80.6 °F 81.8 °F 62.6 °F 54% 29.81 in 10.0 mi NW 27.6 mph 44.9 mph 0.00 in Rain , Thunderstorm Light Thunderstorms and Rain
7:46 PM 71.6 °F - 66.2 °F 83% 29.82 in 6.0 mi WNW 24.2 mph 32.2 mph 0.07 in Rain , Thunderstorm Heavy Thunderstorms and Rain
7:53 PM 69.1 °F - 66.0 °F 90% 29.81 in 4.0 mi West 15.0 mph 35.7 mph 0.22 in Rain , Thunderstorm Heavy Thunderstorms and Rain
8:01 PM 69.8 °F - 66.2 °F 88% 29.80 in 3.0 mi WNW 6.9 mph 17.3 mph 0.19 in Rain , Thunderstorm Heavy Thunderstorms and Rain
8:09 PM 69.8 °F - 66.2 °F 88% 29.80 in 2.5 mi WNW 24.2 mph 31.1 mph 0.42 in Rain , Thunderstorm Heavy Thunderstorms and Rain
8:16 PM 71.6 °F - 66.2 °F 83% 29.77 in 4.0 mi WNW 17.3 mph 32.2 mph 0.58 in Rain , Thunderstorm Heavy Thunderstorms and Rain
8:25 PM 71.6 °F - 66.2 °F 83% 29.78 in 0.2 mi WSW 20.7 mph 31.1 mph 0.79 in Rain , Thunderstorm Heavy Thunderstorms and Rain
8:27 PM 73.4 °F - 66.2 °F 78% 29.76 in 3.0 mi SSE 9.2 mph 31.1 mph 0.85 in Rain , Thunderstorm Heavy Thunderstorms and Rain
8:47 PM 71.6 °F - 68.0 °F 88% 29.77 in 3.0 mi North 15.0 mph 35.7 mph 1.31 in Rain , Thunderstorm Heavy Thunderstorms and Rain
8:53 PM 71.1 °F - 66.0 °F 84% 29.75 in 7.0 mi North 17.3 mph 24.2 mph 1.33 in Rain , Thunderstorm Light Thunderstorms and Rain
8:56 PM 71.6 °F - 64.4 °F 78% 29.77 in 7.0 mi North 15.0 mph 24.2 mph 0.00 in Rain , Thunderstorm Light Thunderstorms and Rain
9:04 PM 71.6 °F - 64.4 °F 78% 29.81 in 10.0 mi NNW 18.4 mph - 0.00 in Rain , Thunderstorm Light Thunderstorms and Rain
9:17 PM 69.8 °F - 64.4 °F 83% 29.78 in 6.0 mi NW 18.4 mph 33.4 mph 0.02 in Rain , Thunderstorm Heavy Thunderstorms and Rain
9:40 PM 69.8 °F - 64.4 °F 83% 29.79 in 2.5 mi West 23.0 mph 34.5 mph 0.32 in Rain , Thunderstorm Heavy Thunderstorms and Rain
9:53 PM 72.0 °F - 66.0 °F 81% 29.75 in 2.5 mi WSW 18.4 mph 34.5 mph 0.67 in Rain , Thunderstorm Heavy Thunderstorms and Rain
9:57 PM 71.6 °F - 66.2 °F 83% 29.78 in 2.0 mi WSW 35.7 mph 46.0 mph 0.11 in Rain , Thunderstorm Heavy Thunderstorms and Rain
10:11 PM 69.8 °F - 64.4 °F 83% 29.86 in 1.0 mi West 29.9 mph 65.6 mph 0.88 in Rain , Thunderstorm Heavy Thunderstorms and Rain
10:22 PM 69.8 °F - 66.2 °F 88% 29.82 in 3.0 mi SSW 17.3 mph 24.2 mph 1.13 in Rain , Thunderstorm Heavy Thunderstorms and Rain
10:25 PM 69.8 °F - 66.2 °F 88% 29.81 in 3.0 mi South 12.7 mph 24.2 mph 1.14 in Rain , Thunderstorm Heavy Thunderstorms and Rain
10:34 PM 69.8 °F - 66.2 °F 88% 29.81 in 6.0 mi SSW 15.0 mph - 1.15 in Rain , Thunderstorm Thunderstorms and Rain
10:53 PM 70.0 °F - 66.9 °F 90% 29.77 in 7.0 mi South 17.3 mph - 1.20 in Rain , Thunderstorm Light Thunderstorms and Rain
11:00 PM 69.8 °F - 66.2 °F 88% 29.77 in 9.0 mi South 10.4 mph - 0.00 in Rain , Thunderstorm Light Thunderstorms and Rain
11:28 PM 69.8 °F - 66.2 °F 88% 29.75 in 10.0 mi South 18.4 mph 24.2 mph 0.02 in   Overcast
11:39 PM 69.8 °F - 66.2 °F 88% 29.76 in 9.0 mi South 12.7 mph - 0.02 in Rain , Thunderstorm Light Rain
11:53 PM 70.0 °F - 66.9 °F 90% 29.72 in 7.0 mi Variable 6.9 mph - 0.04 in Rain , Thunderstorm Light Thunderstorms and Rain